TRA736 LFRS-GMMX

Flight info

Callsign TRA736
Flight time N/A
Altitude 37000
Route ERIGA DCT FUJTI DCT PEPET DCT BAKUP DCT BATAX DCT PINOX DCT TOFEF DCT ALAGU DCT AMSEL UR722 SAK UW900 TIXAL UG850 OBOGA
Aircraft B738/M-SDE2E3FGHIRWXY/LB1

Departure

Time 2026-05-06 13:39
Airport Nantes Atlantique Airport (LFRS)

Arrival

Time N/A
Airport Marrakesh Menara Airport (GMMX)
Time Latitude Longitude Altitude Speed Heading
2026-05-06 13:16 47.15447 -1.60169 98 ft 0 kts 27°
2026-05-06 13:30 47.15429 -1.60182 97 ft 2 kts 27°
2026-05-06 13:30 47.15408 -1.60202 98 ft 4 kts 48°
2026-05-06 13:30 47.15394 -1.60234 99 ft 4 kts 48°
2026-05-06 13:31 47.15394 -1.60242 98 ft 0 kts 341°
2026-05-06 13:33 47.15395 -1.60243 98 ft 3 kts 341°
2026-05-06 13:33 47.15449 -1.60327 99 ft 15 kts 307°
2026-05-06 13:34 47.15527 -1.60427 98 ft 15 kts 315°
2026-05-06 13:34 47.15583 -1.60549 99 ft 14 kts 280°
2026-05-06 13:34 47.15524 -1.60648 97 ft 14 kts 208°
2026-05-06 13:34 47.15434 -1.60717 95 ft 15 kts 208°
2026-05-06 13:35 47.15343 -1.60787 96 ft 15 kts 207°
2026-05-06 13:35 47.15214 -1.60884 97 ft 22 kts 207°
2026-05-06 13:35 47.15080 -1.60987 96 ft 21 kts 207°
2026-05-06 13:35 47.14949 -1.61087 97 ft 21 kts 207°
2026-05-06 13:36 47.14822 -1.61183 96 ft 20 kts 207°
2026-05-06 13:36 47.14699 -1.61277 95 ft 20 kts 207°
2026-05-06 13:36 47.14579 -1.61368 91 ft 19 kts 207°
2026-05-06 13:36 47.14462 -1.61457 90 ft 19 kts 207°
2026-05-06 13:37 47.14342 -1.61548 85 ft 21 kts 207°
2026-05-06 13:37 47.14216 -1.61645 81 ft 20 kts 207°
2026-05-06 13:37 47.14143 -1.61807 76 ft 20 kts 253°
2026-05-06 13:37 47.14180 -1.61934 84 ft 10 kts 358°
2026-05-06 13:38 47.14237 -1.61895 81 ft 8 kts 28°
2026-05-06 13:38 47.14372 -1.61793 86 ft 50 kts 27°
2026-05-06 13:38 47.14884 -1.61404 95 ft 117 kts 27°
2026-05-06 13:38 47.15781 -1.60738 204 ft 162 kts 26°
2026-05-06 13:39 47.16796 -1.59982 923 ft 167 kts 27°
2026-05-06 13:39 47.17867 -1.59368 1815 ft 166 kts
2026-05-06 13:39 47.19043 -1.59869 2192 ft 201 kts 323°
2026-05-06 13:39 47.19834 -1.61681 2582 ft 224 kts 289°
2026-05-06 13:40 47.20136 -1.64052 2903 ft 249 kts 280°
2026-05-06 13:40 47.20510 -1.66629 3455 ft 262 kts 288°
2026-05-06 13:40 47.21085 -1.69144 4393 ft 263 kts 292°
2026-05-06 13:40 47.21756 -1.71652 5356 ft 264 kts 294°
2026-05-06 13:41 47.22368 -1.74227 6222 ft 271 kts 280°
2026-05-06 13:41 47.22191 -1.76993 7096 ft 277 kts 252°
2026-05-06 13:41 47.21383 -1.79573 7973 ft 280 kts 245°
2026-05-06 13:41 47.20474 -1.82120 8825 ft 283 kts 244°
2026-05-06 13:42 47.19549 -1.84687 9699 ft 285 kts 244°
2026-05-06 13:42 47.18620 -1.87289 10411 ft 293 kts 244°
2026-05-06 13:42 47.17658 -1.90023 10616 ft 318 kts 245°
2026-05-06 13:42 47.16609 -1.93019 10830 ft 341 kts 244°
2026-05-06 13:43 47.15505 -1.96172 11362 ft 351 kts 245°
2026-05-06 13:43 47.14292 -1.99308 12068 ft 357 kts 236°
2026-05-06 13:43 47.12672 -2.02111 12828 ft 362 kts 228°
2026-05-06 13:43 47.10911 -2.04787 13556 ft 367 kts 227°
2026-05-06 13:44 47.09119 -2.07498 14205 ft 372 kts 228°
2026-05-06 13:44 47.07335 -2.10269 14881 ft 375 kts 229°
2026-05-06 13:44 47.05564 -2.13096 15552 ft 378 kts 229°
2026-05-06 13:44 47.03817 -2.15934 16196 ft 382 kts 230°
2026-05-06 13:45 47.02037 -2.18850 16842 ft 386 kts 230°
2026-05-06 13:45 46.98429 -2.24769 18125 ft 393 kts 230°
2026-05-06 13:45 46.96584 -2.27753 18688 ft 397 kts 226°
2026-05-06 13:46 46.94352 -2.30164 19241 ft 403 kts 208°
2026-05-06 13:46 46.91824 -2.31959 19834 ft 405 kts 207°
2026-05-06 13:46 46.89290 -2.33800 20362 ft 409 kts 208°
2026-05-06 13:46 46.86754 -2.35707 20908 ft 411 kts 208°
2026-05-06 13:47 46.84236 -2.37711 21457 ft 413 kts 211°
2026-05-06 13:47 46.81786 -2.39829 22005 ft 416 kts 213°
2026-05-06 13:47 46.79312 -2.42036 22542 ft 418 kts 213°
2026-05-06 13:47 46.76825 -2.44266 23054 ft 421 kts 213°
2026-05-06 13:48 46.74331 -2.46490 23692 ft 419 kts 213°
2026-05-06 13:48 46.71840 -2.48695 24176 ft 420 kts 213°
2026-05-06 13:48 46.69325 -2.50908 24549 ft 424 kts 212°
2026-05-06 13:48 46.66790 -2.53128 24926 ft 427 kts 212°
2026-05-06 13:49 46.64230 -2.55362 25316 ft 429 kts 212°
2026-05-06 13:49 46.61697 -2.57569 25728 ft 431 kts 212°
2026-05-06 13:49 46.59115 -2.59814 26116 ft 434 kts 212°
2026-05-06 13:49 46.56519 -2.62070 26502 ft 436 kts 212°
2026-05-06 13:50 46.53909 -2.64336 26866 ft 438 kts 212°
2026-05-06 13:50 46.51283 -2.66613 27175 ft 442 kts 212°
2026-05-06 13:50 46.48630 -2.68911 27471 ft 445 kts 212°
2026-05-06 13:50 46.45964 -2.71219 27840 ft 447 kts 212°
2026-05-06 13:51 46.43293 -2.73528 28215 ft 448 kts 212°
2026-05-06 13:51 46.40642 -2.75816 28562 ft 450 kts 212°
2026-05-06 13:51 46.37942 -2.78144 28868 ft 453 kts 212°
2026-05-06 13:51 46.35227 -2.80484 29166 ft 455 kts 212°
2026-05-06 13:52 46.32507 -2.82824 29577 ft 454 kts 212°
2026-05-06 13:52 46.29792 -2.85159 29939 ft 455 kts 212°
2026-05-06 13:52 46.27062 -2.87502 30221 ft 457 kts 212°
2026-05-06 13:52 46.24331 -2.89841 30528 ft 457 kts 212°
2026-05-06 13:53 46.21598 -2.92177 30872 ft 456 kts 212°
2026-05-06 13:53 46.18906 -2.94476 31214 ft 455 kts 212°
2026-05-06 13:53 46.16182 -2.96799 31518 ft 455 kts 212°
2026-05-06 13:53 46.13453 -2.99124 31803 ft 456 kts 212°
2026-05-06 13:54 46.10725 -3.01447 32108 ft 455 kts 212°
2026-05-06 13:54 46.07996 -3.03768 32421 ft 455 kts 212°
2026-05-06 13:54 46.05269 -3.06084 32725 ft 455 kts 212°
2026-05-06 13:54 46.02544 -3.08397 33061 ft 454 kts 212°
2026-05-06 13:55 45.99823 -3.10704 33366 ft 454 kts 212°
2026-05-06 13:55 45.97138 -3.12977 33639 ft 454 kts 212°
2026-05-06 13:55 45.94421 -3.15275 33955 ft 453 kts 212°
2026-05-06 13:55 45.91703 -3.17571 34183 ft 454 kts 212°
2026-05-06 13:56 45.88975 -3.19873 34371 ft 455 kts 212°
2026-05-06 13:56 45.86252 -3.22168 34639 ft 453 kts 212°
2026-05-06 13:56 45.83534 -3.24456 34892 ft 453 kts 212°
2026-05-06 13:56 45.80821 -3.26737 35124 ft 452 kts 212°
2026-05-06 13:57 45.78107 -3.29017 35357 ft 452 kts 212°
2026-05-06 13:57 45.75430 -3.31263 35585 ft 452 kts 212°
2026-05-06 13:57 45.72724 -3.33531 35816 ft 451 kts 212°
2026-05-06 13:57 45.70015 -3.35798 36058 ft 450 kts 212°
2026-05-06 13:58 45.67319 -3.38052 36314 ft 449 kts 212°
2026-05-06 13:58 45.64623 -3.40304 36508 ft 449 kts 212°
2026-05-06 13:58 45.61927 -3.42553 36702 ft 449 kts 212°
2026-05-06 13:58 45.59233 -3.44798 36918 ft 448 kts 212°
2026-05-06 13:59 45.53857 -3.49272 37001 ft 452 kts 212°
2026-05-06 13:59 45.48445 -3.53763 37006 ft 449 kts 212°
2026-05-06 14:00 45.43059 -3.58223 37007 ft 447 kts 212°
2026-05-06 14:00 45.37693 -3.62658 37008 ft 445 kts 212°
2026-05-06 14:01 45.32375 -3.67044 37014 ft 445 kts 212°
2026-05-06 14:01 45.27022 -3.71448 37024 ft 444 kts 212°
2026-05-06 14:02 45.21669 -3.75843 37014 ft 445 kts 212°
2026-05-06 14:02 45.16304 -3.80239 37020 ft 446 kts 212°
2026-05-06 14:03 45.10931 -3.84633 37015 ft 447 kts 212°
2026-05-06 14:03 45.05594 -3.89040 37014 ft 447 kts 213°
2026-05-06 14:04 45.00277 -3.93613 37029 ft 448 kts 213°
2026-05-06 14:04 44.94953 -3.98206 37020 ft 449 kts 213°
2026-05-06 14:05 44.89606 -4.02786 37014 ft 450 kts 213°
2026-05-06 14:05 44.84284 -4.07323 37019 ft 450 kts 213°
2026-05-06 14:06 44.78925 -4.11879 37022 ft 450 kts 213°
2026-05-06 14:06 44.73563 -4.16427 37021 ft 450 kts 213°
2026-05-06 14:07 44.68205 -4.20964 37020 ft 449 kts 213°
2026-05-06 14:07 44.62889 -4.25454 37021 ft 449 kts 213°
2026-05-06 14:08 44.57543 -4.29961 37026 ft 448 kts 213°
2026-05-06 14:08 44.52205 -4.34452 37020 ft 447 kts 213°
2026-05-06 14:09 44.46872 -4.38930 37026 ft 446 kts 213°
2026-05-06 14:09 44.41581 -4.43362 37030 ft 446 kts 213°
2026-05-06 14:10 44.36274 -4.47838 37029 ft 445 kts 213°
2026-05-06 14:10 44.30983 -4.52324 37028 ft 445 kts 213°
2026-05-06 14:11 44.25698 -4.56797 37029 ft 444 kts 213°
2026-05-06 14:11 44.20446 -4.61229 37030 ft 444 kts 213°
2026-05-06 14:12 44.15163 -4.65675 37030 ft 444 kts 213°
2026-05-06 14:12 44.09872 -4.70117 37031 ft 444 kts 213°
2026-05-06 14:13 44.04582 -4.74549 37029 ft 444 kts 213°
2026-05-06 14:13 43.99325 -4.78945 37031 ft 444 kts 213°
2026-05-06 14:14 43.94026 -4.83366 37030 ft 444 kts 213°
2026-05-06 14:14 43.88728 -4.87778 37030 ft 444 kts 213°
2026-05-06 14:15 43.83428 -4.92182 37030 ft 444 kts 213°
2026-05-06 14:15 43.78163 -4.96547 37025 ft 444 kts 213°
2026-05-06 14:16 43.72865 -5.00931 37027 ft 444 kts 213°
2026-05-06 14:16 43.67567 -5.05305 37025 ft 443 kts 213°
2026-05-06 14:17 43.62272 -5.09668 37030 ft 443 kts 213°
2026-05-06 14:17 43.57013 -5.13993 37035 ft 443 kts 213°
2026-05-06 14:18 43.51722 -5.18335 37034 ft 442 kts 213°
2026-05-06 14:18 43.46434 -5.22665 37028 ft 442 kts 213°
2026-05-06 14:19 43.41152 -5.26981 37024 ft 442 kts 213°
2026-05-06 14:19 43.35907 -5.31259 37035 ft 441 kts 213°
2026-05-06 14:20 43.30625 -5.35558 37034 ft 441 kts 213°
2026-05-06 14:20 43.25343 -5.39849 37016 ft 441 kts 213°
2026-05-06 14:21 43.20061 -5.44130 37005 ft 441 kts 213°
2026-05-06 14:21 43.14810 -5.48377 37020 ft 441 kts 213°
2026-05-06 14:22 43.09522 -5.52646 37001 ft 441 kts 213°
2026-05-06 14:22 43.04239 -5.56902 36995 ft 441 kts 213°
2026-05-06 14:23 42.98953 -5.61153 36997 ft 440 kts 213°
2026-05-06 14:23 42.93708 -5.65362 36985 ft 440 kts 213°
2026-05-06 14:24 42.88434 -5.69585 36978 ft 439 kts 213°
2026-05-06 14:24 42.83167 -5.73794 36960 ft 438 kts 213°
2026-05-06 14:25 42.77913 -5.77984 36970 ft 437 kts 213°
2026-05-06 14:25 42.72660 -5.82167 36968 ft 437 kts 213°
2026-05-06 14:26 42.67445 -5.86310 36968 ft 437 kts 213°
2026-05-06 14:26 42.62191 -5.90477 36963 ft 438 kts 213°
2026-05-06 14:27 42.56931 -5.94639 36966 ft 438 kts 213°
2026-05-06 14:27 42.51665 -5.98798 36960 ft 438 kts 213°
2026-05-06 14:28 42.46391 -6.02955 36960 ft 439 kts 213°
2026-05-06 14:28 42.41150 -6.07078 36949 ft 439 kts 213°
2026-05-06 14:29 42.35869 -6.11224 36951 ft 439 kts 213°
2026-05-06 14:29 42.30582 -6.15367 36952 ft 439 kts 213°
2026-05-06 14:30 42.25295 -6.19502 36954 ft 439 kts 213°
2026-05-06 14:30 42.20047 -6.23599 36957 ft 439 kts 213°
2026-05-06 14:31 42.14761 -6.27716 36951 ft 439 kts 212°